[[{"header":{"parameterUnit":"m.s-1","parameterCategory":2,"la1":30.2991,"la2":30.254,"lo1":-89.0895,"lo2":-89.0444,"dy":0.0017,"dx":0.0017,"nx":28,"ny":28,"refTime":"2023-11-16T03:00:00:Z","depth":"0","parameterNumber":2,"parameterNumberName":"U-component_of_CURRENTS"},"data":[0,0,0,0,0,0,0,0,0,0,0,0,0,0,0,0,0,0,0,0,0,0,0,0,0,0,0,0,0,0,0,0,0,0,0,0,0,0,0,0,0,0,0,0,0,0,0,0,0,0,0,0,0,0,0,0,0,0,-0.2197,-0.2197,0,-0.2221,-0.2221,-0.2222,-0.219,-0.2189,-0.2188,-0.2187,-0.2162,-0.2162,-0.2162,0,0,0,0,0,0,0,0,0,0,0,0,0,-0.2134,-0.2136,-0.2197,-0.2197,-0.2198,-0.2221,-0.2221,-0.2222,-0.219,-0.2189,-0.2187,-0.2186,-0.2162,-0.2162,-0.2162,0,0,0,0,0,0,0,0,0,0,0,0,0,-0.2159,-0.2136,-0.2197,-0.2186,-0.2185,-0.2221,-0.2221,-0.2222,-0.219,-0.2189,-0.2187,-0.2186,-0.2162,-0.2162,-0.2162,-0.2195,0,0,-0.2164,-0.2164,0,0,0,0,0,0,0,0,-0.2157,-0.2161,-0.2187,-0.2187,-0.2186,-0.2202,-0.219,-0.2211,-0.219,-0.2186,-0.2187,-0.2185,-0.2173,-0.2172,-0.2179,-0.2194,-0.2193,-0.2164,-0.2164,-0.2164,-0.2164,0,0,0,0,0,0,0,-0.2156,-0.216,-0.2205,-0.2188,-0.2187,-0.2184,-0.2186,-0.2194,-0.2186,-0.2187,-0.2185,-0.2191,-0.2172,-0.2178,-0.2178,-0.2192,-0.2164,-0.2164,-0.2164,-0.2164,-0.2212,-0.2213,0,0,0,0,0,0,-0.2158,-0.2158,-0.2204,-0.2206,-0.217,-0.2186,-0.2188,-0.2197,-0.2187,-0.2184,-0.2192,-0.2189,-0.2178,-0.2177,-0.2177,-0.2201,-0.2164,-0.2164,-0.2165,-0.2211,-0.2213,-0.2214,0,0,0,0,0,0,-0.2156,-0.2162,-0.2203,-0.2183,-0.2189,-0.2189,-0.22,-0.2199,-0.2198,-0.2191,-0.2188,-0.2192,-0.2177,-0.2176,-0.2181,-0.22,-0.2165,-0.2165,-0.221,-0.2212,-0.2213,-0.2258,0,0,0,0,0,0,-0.2154,-0.2161,-0.2168,-0.2184,-0.219,-0.2225,-0.2201,-0.22,-0.2206,-0.2202,-0.2191,-0.2187,-0.2176,-0.218,-0.2181,-0.22,-0.2165,-0.2209,-0.2211,-0.2213,-0.2255,-0.2261,-0.2266,0,0,0,0,0,-0.2152,-0.2169,-0.2168,-0.2173,-0.2199,-0.2226,-0.2229,-0.2223,-0.2207,-0.2215,-0.2203,-0.2187,-0.2193,-0.2182,-0.2182,-0.2201,-0.2208,-0.221,-0.2213,-0.2253,-0.226,-0.2265,0,0,0,0,0,0,-0.2146,-0.2168,-0.2167,-0.2189,-0.2207,-0.2221,-0.2229,-0.2227,-0.2226,-0.2217,-0.2201,-0.2198,-0.2212,-0.2203,-0.219,-0.2221,-0.2198,-0.2201,-0.2229,-0.2235,-0.224,-0.2237,-0.2166,0,0,0,0,0,-0.215,-0.2164,-0.2187,-0.2203,-0.2213,-0.2222,-0.223,-0.223,-0.2234,-0.2231,-0.2224,-0.2219,-0.2227,-0.2225,-0.223,-0.2247,-0.2226,-0.226,-0.2265,-0.227,-0.2269,-0.2258,-0.2262,-0.2222,-0.2221,-0.2221,0,0,-0.215,-0.2165,-0.2172,-0.2202,-0.2212,-0.2238,-0.2222,-0.224,-0.2258,-0.223,-0.2244,-0.224,-0.2236,-0.2255,-0.226,-0.2246,-0.227,-0.2273,-0.2277,-0.2273,-0.2261,-0.2265,-0.2268,-0.2223,-0.2223,-0.2223,0,0,-0.2163,-0.2174,-0.2191,-0.2213,-0.2236,-0.2248,-0.2254,-0.2272,-0.2273,-0.2293,-0.2278,-0.2282,-0.2291,-0.2293,-0.2295,-0.2334,-0.2301,-0.2337,-0.2358,-0.2348,-0.2351,-0.2354,-0.2327,-0.2326,-0.2336,-0.2336,-0.2336,0,-0.2162,-0.2187,-0.22,-0.2229,-0.2246,-0.2254,-0.228,-0.2295,-0.231,-0.2313,-0.2299,-0.2313,-0.2311,-0.2332,-0.2345,-0.2346,-0.2326,-0.2334,-0.2354,-0.2356,-0.2358,-0.2329,-0.2328,-0.2338,-0.2338,-0.2338,-0.2338,0,-0.219,-0.2213,-0.2227,-0.2262,-0.2286,-0.2309,-0.2336,-0.2352,-0.2351,-0.2359,-0.2374,-0.237,-0.2372,-0.2381,-0.2375,-0.2393,-0.2371,-0.2364,-0.2336,-0.2364,-0.2333,-0.2331,-0.2342,-0.2341,-0.234,-0.234,0,0,-0.2173,-0.2234,-0.2235,-0.2255,-0.2304,-0.2322,-0.2362,-0.2392,-0.2403,-0.2415,-0.2424,-0.2445,-0.2429,-0.2431,-0.2424,-0.2419,-0.2417,-0.2398,-0.2396,-0.2366,-0.238,-0.2292,-0.2281,-0.2411,-0.2411,-0.2412,-0.2351,0,-0.2185,-0.2234,-0.2265,-0.2307,-0.2334,-0.2364,-0.2399,-0.2428,-0.2439,-0.2451,-0.2451,-0.2457,-0.2453,-0.2447,-0.2447,-0.2429,-0.2414,-0.2433,-0.236,-0.2358,-0.2273,-0.2277,-0.2179,-0.211,-0.2349,-0.2348,-0.2348,0,-0.2194,-0.2226,-0.227,-0.2324,-0.2338,-0.2366,-0.2406,-0.2435,-0.2466,-0.2475,-0.2482,-0.2478,-0.2485,-0.2467,-0.2445,-0.2455,-0.242,-0.2399,-0.2396,-0.2296,-0.2266,-0.2122,-0.2097,-0.2071,-0.2345,-0.2345,-0.2345,0,-0.2159,-0.2223,-0.2252,-0.2274,-0.2343,-0.2361,-0.2389,-0.2432,-0.2451,-0.2476,-0.2482,-0.2492,-0.248,-0.2461,-0.2421,-0.2433,-0.2375,-0.2384,-0.2269,-0.2262,-0.2153,-0.2136,-0.2089,-0.2353,-0.2353,-0.2353,-0.2354,0,-0.2153,-0.217,-0.2235,-0.2249,-0.2276,-0.2334,-0.236,-0.239,-0.2433,-0.2443,-0.2476,-0.247,-0.2477,-0.2447,-0.2418,-0.2326,-0.2368,-0.2264,-0.2239,-0.2165,-0.215,-0.2102,-0.212,-0.2351,-0.2352,-0.2352,-0.2352,0,-0.2098,-0.2148,-0.2176,-0.2241,-0.2259,-0.2268,-0.2331,-0.2347,-0.2399,-0.2411,-0.2417,-0.2447,-0.2403,-0.2386,-0.234,-0.2298,-0.2182,-0.2188,-0.209,-0.2054,-0.1923,-0.1947,-0.1858,-0.1809,-0.2057,-0.2054,-0.2052,0,-0.2071,-0.2084,-0.2141,-0.2149,-0.2172,-0.2206,-0.2229,-0.2307,-0.2328,-0.238,-0.2372,-0.2355,-0.2311,-0.2215,-0.2139,-0.2052,-0.2061,-0.1918,-0.1924,-0.189,-0.19,-0.1919,-0.1888,-0.1801,-0.1796,-0.1793,-0.1791,0,-0.2003,-0.2022,-0.2041,-0.2058,-0.2079,-0.211,-0.215,-0.2167,-0.2247,-0.2261,-0.2249,-0.2219,-0.214,-0.2001,-0.1899,-0.1845,-0.1859,-0.1845,-0.184,-0.1713,-0.1701,-0.165,-0.1867,-0.1761,-0.1764,-0.1766,-0.1768,-0.1769,-0.1926,-0.1917,-0.1936,-0.1942,-0.197,-0.1976,-0.1954,-0.201,-0.2013,-0.1995,-0.2057,-0.1973,-0.1897,-0.173,-0.1675,-0.1546,-0.1621,-0.1506,-0.1543,-0.1569,-0.1506,-0.1644,-0.1494,-0.1496,-0.1497,-0.1498,-0.1499,0,-0.181,-0.181,-0.1816,-0.1814,-0.1792,-0.1847,-0.1866,-0.182,-0.177,-0.1795,-0.1753,-0.1663,-0.1516,-0.1473,-0.1345,-0.1272,-0.1265,-0.1254,-0.1278,-0.1264,-0.1398,-0.1369,-0.1147,-0.1147,-0.1147,-0.1147,-0.1147,-0.1147,-0.1746,-0.17,-0.1706,-0.1625,-0.1622,-0.1541,-0.1517,-0.147,-0.146,-0.1369,-0.1343,-0.1355,-0.1323,-0.1322,-0.1198,-0.1139,-0.1131,-0.1079,-0.1126,-0.1247,-0.1275,-0.1301,-0.1278,-0.104,-0.104,-0.0938,-0.0938,-0.0937]},{"header":{"parameterUnit":"m.s-1","parameterCategory":2,"la1":30.2991,"la2":30.254,"lo1":-89.0895,"lo2":-89.0444,"dy":0.0017,"dx":0.0017,"nx":28,"ny":28,"refTime":"2023-11-16T03:00:00:Z","depth":"0","parameterNumber":3,"parameterNumberName":"V-component_of_CURRENTS"},"data":[0,0,0,0,0,0,0,0,0,0,0,0,0,0,0,0,0,0,0,0,0,0,0,0,0,0,0,0,0,0,0,0,0,0,0,0,0,0,0,0,0,0,0,0,0,0,0,0,0,0,0,0,0,0,0,0,0,0,-0.0424,-0.0423,0,-0.0347,-0.0346,-0.0345,-0.0288,-0.0288,-0.0287,-0.0287,-0.0179,-0.0177,-0.0174,0,0,0,0,0,0,0,0,0,0,0,0,0,-0.048,-0.048,-0.0424,-0.0423,-0.0422,-0.0347,-0.0346,-0.0345,-0.0288,-0.0288,-0.0287,-0.0287,-0.018,-0.0177,-0.0174,0,0,0,0,0,0,0,0,0,0,0,0,0,-0.0434,-0.048,-0.0424,-0.0385,-0.0381,-0.0347,-0.0346,-0.0344,-0.0288,-0.0288,-0.0287,-0.0286,-0.0181,-0.0177,-0.0173,-0.0164,0,0,-0.0162,-0.0161,0,0,0,0,0,0,0,0,-0.0437,-0.0432,-0.0392,-0.0388,-0.0383,-0.0327,-0.0326,-0.0283,-0.0289,-0.0323,-0.0287,-0.0286,-0.0226,-0.0219,-0.0205,-0.0159,-0.0154,-0.0162,-0.016,-0.0158,-0.0157,0,0,0,0,0,0,0,-0.044,-0.0435,-0.0393,-0.0391,-0.0386,-0.0357,-0.035,-0.0317,-0.0278,-0.032,-0.0316,-0.0308,-0.0224,-0.0209,-0.0202,-0.0152,-0.0162,-0.0159,-0.0156,-0.0155,-0.0079,-0.0079,0,0,0,0,0,0,-0.0454,-0.0438,-0.0395,-0.039,-0.041,-0.0357,-0.0349,-0.0345,-0.0279,-0.0269,-0.0309,-0.0306,-0.0216,-0.0207,-0.0198,-0.0177,-0.0158,-0.0155,-0.0152,-0.0079,-0.0079,-0.0079,0,0,0,0,0,0,-0.0456,-0.0451,-0.0398,-0.0413,-0.0404,-0.0357,-0.0353,-0.0344,-0.0328,-0.0271,-0.026,-0.0302,-0.0215,-0.0204,-0.0168,-0.0173,-0.0153,-0.0149,-0.0079,-0.0079,-0.0079,-0.0138,0,0,0,0,0,0,-0.0458,-0.0452,-0.0456,-0.0414,-0.0404,-0.0384,-0.0353,-0.0343,-0.0325,-0.032,-0.0262,-0.0251,-0.0214,-0.0174,-0.0165,-0.0167,-0.0147,-0.0078,-0.0079,-0.0079,-0.0136,-0.0141,-0.0144,0,0,0,0,0,-0.046,-0.0469,-0.0457,-0.0452,-0.041,-0.0384,-0.0377,-0.034,-0.0325,-0.0323,-0.0281,-0.0253,-0.017,-0.0171,-0.016,-0.0162,-0.0078,-0.0079,-0.0079,-0.0134,-0.014,-0.0144,0,0,0,0,0,0,-0.0496,-0.0463,-0.0449,-0.0447,-0.0421,-0.0375,-0.037,-0.0346,-0.0312,-0.0307,-0.0253,-0.024,-0.0211,-0.018,-0.0183,-0.0141,-0.012,-0.0119,-0.0166,-0.0171,-0.0175,-0.0184,-0.0144,0,0,0,0,0,-0.0507,-0.0505,-0.0468,-0.0468,-0.0457,-0.0416,-0.0402,-0.0378,-0.0341,-0.0325,-0.0284,-0.0242,-0.0205,-0.0183,-0.0148,-0.0125,-0.0088,-0.0119,-0.0123,-0.0127,-0.0127,-0.0077,-0.0077,-0.0081,-0.0081,-0.0081,0,0,-0.0521,-0.0504,-0.0502,-0.0476,-0.0452,-0.0444,-0.0406,-0.039,-0.0379,-0.0319,-0.0295,-0.0256,-0.0203,-0.0176,-0.0161,-0.0149,-0.0107,-0.0128,-0.0131,-0.0129,-0.0077,-0.0077,-0.0076,-0.0081,-0.0081,-0.0081,0,0,-0.0553,-0.0534,-0.0544,-0.0525,-0.0497,-0.0469,-0.0468,-0.0426,-0.0403,-0.0376,-0.0331,-0.0293,-0.0241,-0.0201,-0.0175,-0.0181,-0.0133,-0.0173,-0.0198,-0.015,-0.0149,-0.0148,-0.0105,-0.01,-0.0173,-0.0173,-0.0173,0,-0.0573,-0.0579,-0.0543,-0.0546,-0.0535,-0.0485,-0.0491,-0.0461,-0.0412,-0.0394,-0.0378,-0.0293,-0.0252,-0.0208,-0.021,-0.019,-0.0157,-0.0185,-0.0155,-0.0153,-0.0151,-0.0107,-0.0101,-0.0176,-0.0176,-0.0176,-0.0175,0,-0.0608,-0.0612,-0.0617,-0.0604,-0.0585,-0.0583,-0.0537,-0.0517,-0.0485,-0.0449,-0.0403,-0.0342,-0.029,-0.0273,-0.0242,-0.0207,-0.0188,-0.0169,-0.0145,-0.0154,-0.0108,-0.0099,-0.018,-0.0179,-0.0178,-0.0178,0,0,-0.0653,-0.0646,-0.0648,-0.0654,-0.0616,-0.0608,-0.0587,-0.0552,-0.0534,-0.0484,-0.0454,-0.0391,-0.0352,-0.032,-0.0273,-0.023,-0.0188,-0.0199,-0.0195,-0.0161,-0.0084,-0.0046,-0.0033,-0.0165,-0.0164,-0.0163,-0.006,0,-0.0693,-0.0723,-0.0699,-0.0718,-0.0725,-0.0674,-0.0656,-0.0613,-0.0566,-0.0523,-0.0452,-0.0409,-0.0371,-0.0346,-0.0297,-0.0211,-0.0169,-0.0218,-0.0076,-0.0072,-0.004,-0.0023,0.0001,0.0098,-0.0051,-0.005,-0.0049,0,-0.0734,-0.0748,-0.078,-0.0774,-0.0772,-0.0768,-0.0727,-0.0705,-0.0626,-0.0587,-0.0524,-0.0463,-0.0388,-0.0359,-0.022,-0.0253,-0.0178,-0.0114,-0.0108,-0.0046,-0.0018,0.0086,0.0119,0.0212,-0.0036,-0.0037,-0.0038,0,-0.0785,-0.0803,-0.0834,-0.0832,-0.0813,-0.0812,-0.0793,-0.0726,-0.0701,-0.0625,-0.0594,-0.0494,-0.0435,-0.0333,-0.0197,-0.0209,-0.0039,-0.0037,0.0067,0.0071,0.0135,0.0142,0.0274,0.0054,0.0054,0.0054,0.0053,0,-0.0835,-0.0858,-0.0864,-0.088,-0.0904,-0.0864,-0.0863,-0.0826,-0.0758,-0.0721,-0.0634,-0.0573,-0.0425,-0.0307,-0.02,-0.003,-0.0037,0.0071,0.0105,0.0114,0.0118,0.0237,0.0268,0.0057,0.0057,0.0056,0.0055,0,-0.0881,-0.0888,-0.0927,-0.0931,-0.0932,-0.0948,-0.092,-0.0908,-0.0841,-0.0787,-0.0766,-0.062,-0.0458,-0.0305,-0.0117,-0.0024,0.0192,0.0179,0.0179,0.021,0.0378,0.0404,0.0568,0.0633,0.0305,0.0307,0.0308,0,-0.0909,-0.0935,-0.0973,-0.0999,-0.1005,-0.1016,-0.1015,-0.0958,-0.0931,-0.0805,-0.0777,-0.0613,-0.0469,-0.0179,0.0014,0.0218,0.0282,0.0343,0.0323,0.0403,0.0456,0.0465,0.0508,0.0385,0.0387,0.0388,0.039,0,-0.0957,-0.0972,-0.1007,-0.1061,-0.1085,-0.1102,-0.1089,-0.1078,-0.0989,-0.091,-0.0764,-0.0638,-0.0349,-0.0079,0.0175,0.0286,0.0414,0.038,0.0473,0.0542,0.0552,0.0625,0.0293,0.0403,0.0402,0.0401,0.04,0.04,-0.0989,-0.1028,-0.1072,-0.1121,-0.1152,-0.1167,-0.116,-0.111,-0.104,-0.0882,-0.0763,-0.0526,-0.017,0.021,0.034,0.0592,0.0551,0.0649,0.0678,0.0683,0.0738,0.0431,0.0569,0.0569,0.0568,0.0568,0.0568,0,-0.1019,-0.1062,-0.1121,-0.1176,-0.1209,-0.1208,-0.1188,-0.1136,-0.1028,-0.085,-0.067,-0.0237,0.01,0.0405,0.0764,0.0883,0.0901,0.093,0.095,0.0982,0.0731,0.0726,0.0892,0.0892,0.0892,0.0892,0.0892,0.0891,-0.1036,-0.1099,-0.1132,-0.1202,-0.1233,-0.1235,-0.1214,-0.1104,-0.0961,-0.064,-0.0358,-0.0143,0.0287,0.083,0.1132,0.1146,0.1243,0.1221,0.1283,0.1101,0.1077,0.1053,0.1058,0.129,0.1291,0.1525,0.1527,0.1529]}],[{"header":{"parameterUnit":"m.s-1","parameterCategory":2,"la1":30.2991,"la2":30.254,"lo1":-89.0895,"lo2":-89.0444,"dy":0.0017,"dx":0.0017,"nx":28,"ny":28,"refTime":"2023-11-16T03:00:00:Z","depth":"2","parameterNumber":2,"parameterNumberName":"U-component_of_CURRENTS"},"data":[0,0,0,0,0,0,0,0,0,0,0,0,0,0,0,0,0,0,0,0,0,0,0,0,0,0,0,0,0,0,0,0,0,0,0,0,0,0,0,0,0,0,0,0,0,0,0,0,0,0,0,0,0,0,0,0,0,0,-0.1903,-0.1904,0,-0.1924,-0.1924,-0.1924,-0.1899,-0.1899,-0.1898,-0.1897,-0.1881,-0.1881,-0.1881,0,0,0,0,0,0,0,0,0,0,0,0,0,-0.1853,-0.1854,-0.1903,-0.1904,-0.1904,-0.1924,-0.1924,-0.1924,-0.19,-0.1899,-0.1898,-0.1897,-0.1881,-0.1881,-0.1881,0,0,0,0,0,0,0,0,0,0,0,0,0,-0.1873,-0.1854,-0.1903,-0.1895,-0.1895,-0.1924,-0.1924,-0.1924,-0.19,-0.1899,-0.1897,-0.1896,-0.1881,-0.1881,-0.1881,-0.1908,0,0,-0.1883,-0.1883,0,0,0,0,0,0,0,0,-0.1872,-0.1875,-0.1896,-0.1896,-0.1896,-0.1909,-0.1901,-0.1917,-0.19,-0.1896,-0.1897,-0.1896,-0.1889,-0.1889,-0.1893,-0.1907,-0.1906,-0.1883,-0.1883,-0.1883,-0.1883,0,0,0,0,0,0,0,-0.1871,-0.1874,-0.191,-0.1897,-0.1896,-0.1895,-0.1896,-0.1904,-0.1897,-0.1897,-0.1895,-0.19,-0.1888,-0.1893,-0.1893,-0.1906,-0.1883,-0.1883,-0.1884,-0.1884,-0.1931,-0.1932,0,0,0,0,0,0,-0.1872,-0.1873,-0.1909,-0.1911,-0.1882,-0.1896,-0.1898,-0.1905,-0.1898,-0.1896,-0.1901,-0.1899,-0.1893,-0.1892,-0.1892,-0.1919,-0.1883,-0.1884,-0.1884,-0.193,-0.1931,-0.1932,0,0,0,0,0,0,-0.1871,-0.1875,-0.1909,-0.1893,-0.1897,-0.1899,-0.1907,-0.1906,-0.1909,-0.1902,-0.1899,-0.1905,-0.1892,-0.1891,-0.1899,-0.1918,-0.1884,-0.1884,-0.1929,-0.1931,-0.1932,-0.1976,0,0,0,0,0,0,-0.187,-0.1875,-0.1881,-0.1893,-0.1898,-0.1929,-0.1908,-0.1907,-0.1915,-0.1912,-0.1904,-0.1902,-0.1891,-0.1899,-0.19,-0.1918,-0.1885,-0.1928,-0.193,-0.1931,-0.1973,-0.1979,-0.1984,0,0,0,0,0,-0.1868,-0.1882,-0.1881,-0.1886,-0.1907,-0.193,-0.1932,-0.1928,-0.1916,-0.1924,-0.1916,-0.1902,-0.1911,-0.19,-0.1901,-0.192,-0.1927,-0.1929,-0.1931,-0.1971,-0.1978,-0.1984,0,0,0,0,0,0,-0.1864,-0.1882,-0.1881,-0.1899,-0.1915,-0.1926,-0.1934,-0.1933,-0.1935,-0.1929,-0.1915,-0.1913,-0.1929,-0.192,-0.1908,-0.194,-0.1917,-0.1919,-0.1947,-0.1953,-0.1958,-0.1955,-0.1885,0,0,0,0,0,-0.1868,-0.1879,-0.1898,-0.1912,-0.1921,-0.1929,-0.1937,-0.1937,-0.1942,-0.1941,-0.1937,-0.1935,-0.1942,-0.1942,-0.1947,-0.1965,-0.1944,-0.1978,-0.1983,-0.1987,-0.1986,-0.1977,-0.1981,-0.194,-0.194,-0.194,0,0,-0.1869,-0.1881,-0.1886,-0.1912,-0.192,-0.1944,-0.193,-0.1947,-0.1964,-0.194,-0.1957,-0.1955,-0.1952,-0.1971,-0.1977,-0.1963,-0.1988,-0.199,-0.1994,-0.199,-0.198,-0.1983,-0.1987,-0.1941,-0.1941,-0.1941,0,0,-0.188,-0.1889,-0.1904,-0.1923,-0.1944,-0.1954,-0.1961,-0.1978,-0.1981,-0.2002,-0.199,-0.1996,-0.2008,-0.2008,-0.201,-0.2048,-0.2018,-0.2053,-0.2074,-0.2065,-0.2068,-0.207,-0.2045,-0.2044,-0.2052,-0.2052,-0.2052,0,-0.188,-0.1901,-0.1912,-0.1937,-0.1952,-0.196,-0.1984,-0.1999,-0.2015,-0.202,-0.2011,-0.2028,-0.2026,-0.2046,-0.2059,-0.2059,-0.2042,-0.205,-0.2071,-0.2073,-0.2074,-0.2047,-0.2047,-0.2054,-0.2054,-0.2054,-0.2053,0,-0.1904,-0.1924,-0.1936,-0.1967,-0.1989,-0.201,-0.2035,-0.2052,-0.2056,-0.2065,-0.2083,-0.2081,-0.2085,-0.2094,-0.2089,-0.2107,-0.2086,-0.208,-0.2053,-0.2081,-0.2051,-0.2049,-0.2058,-0.2057,-0.2056,-0.2055,0,0,-0.1887,-0.1941,-0.1942,-0.196,-0.2005,-0.2021,-0.206,-0.2088,-0.2101,-0.2117,-0.213,-0.215,-0.2139,-0.2141,-0.2136,-0.2132,-0.2132,-0.2114,-0.2112,-0.2084,-0.2099,-0.2017,-0.2007,-0.2129,-0.2129,-0.2129,-0.2072,0,-0.1896,-0.1939,-0.1967,-0.2006,-0.203,-0.2059,-0.2093,-0.2121,-0.2135,-0.2152,-0.2154,-0.2164,-0.2161,-0.2159,-0.216,-0.2143,-0.213,-0.2147,-0.208,-0.2078,-0.1997,-0.2003,-0.1863,-0.1794,-0.207,-0.2069,-0.2069,0,-0.1903,-0.1931,-0.1971,-0.2021,-0.2034,-0.2062,-0.2101,-0.213,-0.2163,-0.2175,-0.2186,-0.2186,-0.2194,-0.218,-0.2159,-0.2169,-0.2138,-0.2118,-0.2115,-0.202,-0.1992,-0.1812,-0.178,-0.2066,-0.2066,-0.2066,-0.2066,0,-0.187,-0.1928,-0.1955,-0.1975,-0.2039,-0.2059,-0.2086,-0.2129,-0.2148,-0.2178,-0.2188,-0.22,-0.2193,-0.2175,-0.2139,-0.215,-0.2098,-0.2104,-0.1997,-0.199,-0.1847,-0.1827,-0.2077,-0.2077,-0.2077,-0.2077,-0.2077,0,-0.1862,-0.1879,-0.1941,-0.1954,-0.1981,-0.2036,-0.2063,-0.2092,-0.2137,-0.2147,-0.2185,-0.218,-0.2191,-0.2165,-0.2138,-0.2051,-0.2092,-0.1993,-0.1969,-0.1857,-0.184,-0.206,-0.2059,-0.2075,-0.2076,-0.2076,-0.2076,0,-0.1812,-0.1858,-0.1885,-0.1948,-0.1965,-0.1976,-0.2038,-0.2054,-0.2108,-0.212,-0.2129,-0.216,-0.212,-0.2109,-0.2067,-0.2027,-0.1968,-0.1924,-0.1783,-0.1744,-0.1868,-0.187,-0.1805,-0.1802,-0.1799,-0.1796,-0.1794,0,-0.1787,-0.18,-0.1855,-0.1863,-0.1886,-0.1921,-0.1943,-0.2018,-0.2037,-0.2089,-0.208,-0.207,-0.2026,-0.1939,-0.1869,-0.1789,-0.1866,-0.162,-0.1618,-0.1856,-0.1841,-0.1847,-0.1853,-0.1444,-0.144,-0.1436,-0.1433,0,-0.1726,-0.1746,-0.1764,-0.178,-0.18,-0.1828,-0.1865,-0.1879,-0.1954,-0.1965,-0.195,-0.1921,-0.1852,-0.1697,-0.1609,-0.1553,-0.1628,-0.1537,-0.1813,-0.1539,-0.1512,-0.1499,-0.1517,-0.1398,-0.1402,-0.1404,-0.1406,-0.1408,-0.1658,-0.165,-0.1668,-0.1672,-0.1698,-0.1699,-0.1674,-0.1722,-0.1718,-0.1693,-0.1755,-0.1657,-0.1638,-0.1413,-0.1327,-0.1268,-0.1384,-0.133,-0.1343,-0.1361,-0.1333,-0.1303,-0.1144,-0.1146,-0.1147,-0.1149,-0.115,0,-0.1555,-0.1553,-0.1556,-0.155,-0.1526,-0.158,-0.1589,-0.1536,-0.1475,-0.1487,-0.1444,-0.1266,-0.1154,-0.1144,-0.0992,-0.0961,-0.0974,-0.0926,-0.0946,-0.098,-0.101,-0.0967,-0.0679,-0.0678,-0.0677,-0.0675,0,0,-0.1497,-0.1452,-0.1452,-0.137,-0.1366,-0.1282,-0.1254,-0.1195,-0.1172,-0.1068,-0.1018,-0.108,-0.1106,-0.0891,-0.0839,-0.0734,-0.0854,-0.0697,-0.1073,-0.113,-0.1159,-0.1237,-0.1207,0,0,0,0,0]},{"header":{"parameterUnit":"m.s-1","parameterCategory":2,"la1":30.2991,"la2":30.254,"lo1":-89.0895,"lo2":-89.0444,"dy":0.0017,"dx":0.0017,"nx":28,"ny":28,"refTime":"2023-11-16T03:00:00:Z","depth":"2","parameterNumber":3,"parameterNumberName":"V-component_of_CURRENTS"},"data":[0,0,0,0,0,0,0,0,0,0,0,0,0,0,0,0,0,0,0,0,0,0,0,0,0,0,0,0,0,0,0,0,0,0,0,0,0,0,0,0,0,0,0,0,0,0,0,0,0,0,0,0,0,0,0,0,0,0,-0.0278,-0.0278,0,-0.0208,-0.0207,-0.0206,-0.0156,-0.0155,-0.0155,-0.0155,-0.0055,-0.0053,-0.005,0,0,0,0,0,0,0,0,0,0,0,0,0,-0.0329,-0.0329,-0.0278,-0.0277,-0.0277,-0.0208,-0.0207,-0.0206,-0.0156,-0.0155,-0.0155,-0.0155,-0.0056,-0.0053,-0.005,0,0,0,0,0,0,0,0,0,0,0,0,0,-0.0287,-0.0329,-0.0278,-0.0244,-0.024,-0.0208,-0.0207,-0.0205,-0.0156,-0.0155,-0.0155,-0.0154,-0.0057,-0.0053,-0.005,-0.0038,0,0,-0.0039,-0.0037,0,0,0,0,0,0,0,0,-0.029,-0.0286,-0.025,-0.0246,-0.0242,-0.019,-0.0188,-0.0148,-0.0156,-0.0187,-0.0155,-0.0154,-0.0098,-0.0091,-0.0079,-0.0034,-0.0029,-0.0039,-0.0037,-0.0035,-0.0034,0,0,0,0,0,0,0,-0.0293,-0.0288,-0.025,-0.0249,-0.0244,-0.0218,-0.0212,-0.018,-0.0146,-0.0184,-0.0181,-0.0174,-0.0096,-0.0082,-0.0076,-0.0028,-0.0039,-0.0036,-0.0033,-0.0032,0.0039,0.0039,0,0,0,0,0,0,-0.0306,-0.0291,-0.0252,-0.0248,-0.0266,-0.0218,-0.0211,-0.0207,-0.0146,-0.0137,-0.0175,-0.0172,-0.0088,-0.008,-0.0072,-0.0051,-0.0035,-0.0032,-0.003,0.004,0.0039,0.0039,0,0,0,0,0,0,-0.0307,-0.0303,-0.0255,-0.0268,-0.026,-0.0218,-0.0214,-0.0206,-0.0192,-0.0139,-0.0129,-0.0169,-0.0088,-0.0077,-0.0044,-0.0047,-0.003,-0.0027,0.004,0.0039,0.0039,-0.0012,0,0,0,0,0,0,-0.0309,-0.0304,-0.0308,-0.0269,-0.026,-0.0241,-0.0214,-0.0205,-0.0189,-0.0185,-0.0131,-0.0121,-0.0087,-0.005,-0.0041,-0.0042,-0.0024,0.004,0.004,0.0039,-0.001,-0.0014,-0.0018,0,0,0,0,0,-0.0311,-0.0319,-0.0309,-0.0304,-0.0266,-0.0242,-0.0235,-0.0202,-0.019,-0.0187,-0.0149,-0.0123,-0.0046,-0.0047,-0.0037,-0.0037,0.004,0.004,0.0039,-0.0009,-0.0014,-0.0018,0,0,0,0,0,0,-0.0342,-0.0313,-0.0301,-0.03,-0.0276,-0.0233,-0.0229,-0.0208,-0.0176,-0.0173,-0.0123,-0.011,-0.0084,-0.0055,-0.0058,-0.0018,0.0,0.0002,-0.004,-0.0044,-0.0048,-0.0056,-0.0021,0,0,0,0,0,-0.0353,-0.0352,-0.0318,-0.0318,-0.0308,-0.0271,-0.0258,-0.0237,-0.0203,-0.0189,-0.0151,-0.0112,-0.0078,-0.0057,-0.0025,-0.0002,0.0032,0.0004,0.0,-0.0003,-0.0003,0.0045,0.0045,0.0038,0.0038,0.0038,0,0,-0.0365,-0.035,-0.0348,-0.0325,-0.0304,-0.0295,-0.0262,-0.0248,-0.0237,-0.0183,-0.0161,-0.0125,-0.0076,-0.005,-0.0036,-0.0025,0.0016,-0.0004,-0.0007,-0.0005,0.0044,0.0045,0.0046,0.0037,0.0037,0.0037,0,0,-0.0392,-0.0376,-0.0386,-0.0368,-0.0343,-0.0318,-0.0318,-0.0279,-0.0259,-0.0234,-0.0193,-0.0158,-0.011,-0.0072,-0.0047,-0.0051,-0.0008,-0.0045,-0.0066,-0.002,-0.0019,-0.0017,0.002,0.0025,-0.0044,-0.0044,-0.0044,0,-0.0409,-0.0415,-0.0384,-0.0387,-0.0376,-0.0333,-0.0337,-0.031,-0.0266,-0.0248,-0.0236,-0.0157,-0.0119,-0.0076,-0.0078,-0.0059,-0.003,-0.0054,-0.0024,-0.0022,-0.002,0.0018,0.0025,-0.0047,-0.0047,-0.0046,-0.0046,0,-0.0438,-0.0443,-0.0447,-0.0436,-0.0419,-0.0417,-0.0376,-0.0358,-0.0331,-0.0297,-0.0255,-0.0199,-0.0151,-0.0135,-0.0106,-0.0072,-0.0056,-0.0038,-0.0015,-0.0022,0.0018,0.0026,-0.005,-0.005,-0.0049,-0.0048,0,0,-0.0477,-0.0471,-0.0474,-0.048,-0.0446,-0.0439,-0.0419,-0.0387,-0.0372,-0.0325,-0.0298,-0.0239,-0.0205,-0.0174,-0.0131,-0.009,-0.005,-0.0062,-0.0058,-0.0028,0.0047,0.0071,0.0082,-0.0027,-0.0026,-0.0025,0.0066,0,-0.0512,-0.0537,-0.0517,-0.0534,-0.0541,-0.0495,-0.0479,-0.0441,-0.04,-0.0361,-0.0294,-0.0255,-0.022,-0.0198,-0.015,-0.0072,-0.0031,-0.0077,0.0053,0.0057,0.0077,0.0091,0.0072,0.0153,0.0074,0.0075,0.0076,0,-0.0546,-0.0559,-0.0588,-0.0585,-0.0583,-0.058,-0.0546,-0.0526,-0.0454,-0.042,-0.0362,-0.0306,-0.0234,-0.0208,-0.0079,-0.011,-0.004,0.002,0.0025,0.0072,0.0095,0.015,0.0171,0.009,0.0089,0.0088,0.0087,0,-0.0592,-0.0608,-0.0637,-0.0635,-0.062,-0.062,-0.0605,-0.0546,-0.0526,-0.0456,-0.043,-0.0335,-0.0284,-0.0185,-0.0061,-0.007,0.0084,0.009,0.0178,0.018,0.0203,0.0205,0.0177,0.0177,0.0177,0.0177,0.0177,0,-0.0634,-0.0657,-0.0664,-0.0679,-0.0705,-0.067,-0.0673,-0.0641,-0.0582,-0.0554,-0.0468,-0.0415,-0.0276,-0.0168,-0.0065,0.0086,0.0085,0.0181,0.021,0.0183,0.0183,0.0158,0.0155,0.018,0.018,0.0179,0.0178,0,-0.0676,-0.0683,-0.072,-0.0727,-0.073,-0.0748,-0.0729,-0.0721,-0.0662,-0.062,-0.06,-0.0467,-0.0322,-0.0178,-0.0003,0.0083,0.022,0.0271,0.0226,0.0249,0.0283,0.0276,0.0375,0.0377,0.0378,0.0379,0.038,0,-0.0701,-0.0725,-0.0765,-0.0792,-0.08,-0.0815,-0.0818,-0.077,-0.075,-0.0643,-0.0621,-0.0475,-0.0348,-0.0083,0.0092,0.0282,0.0275,0.036,0.0343,0.0287,0.0306,0.0296,0.0287,0.0351,0.0351,0.0352,0.0353,0,-0.0745,-0.0762,-0.0795,-0.0851,-0.0877,-0.0898,-0.0893,-0.0887,-0.0814,-0.0747,-0.0623,-0.0512,-0.0257,-0.0031,0.02,0.03,0.0327,0.0378,0.0351,0.0299,0.0271,0.0287,0.0278,0.0358,0.0357,0.0357,0.0356,0.0356,-0.0777,-0.0814,-0.0858,-0.0909,-0.0943,-0.0962,-0.0959,-0.0922,-0.0866,-0.0733,-0.0632,-0.0424,-0.0232,0.0126,0.0277,0.0409,0.0403,0.0433,0.0428,0.0424,0.04,0.0376,0.0478,0.0478,0.0478,0.0478,0.0478,0,-0.0807,-0.0849,-0.0906,-0.0962,-0.0997,-0.1,-0.099,-0.0944,-0.0857,-0.0709,-0.0554,-0.0304,-0.006,0.0137,0.036,0.0482,0.0456,0.0488,0.0435,0.0429,0.0425,0.0398,0.0477,0.0477,0.0477,0.0478,0,0,-0.0825,-0.0883,-0.0914,-0.0985,-0.102,-0.1028,-0.1013,-0.0917,-0.0795,-0.0614,-0.0443,-0.0255,-0.0021,0.0136,0.0283,0.0395,0.0374,0.0394,0.0382,0.0296,0.029,0.0381,0.0334,0,0,0,0,0]}],[{"header":{"parameterUnit":"m.s-1","parameterCategory":2,"la1":30.2991,"la2":30.254,"lo1":-89.0895,"lo2":-89.0444,"dy":0.0017,"dx":0.0017,"nx":28,"ny":28,"refTime":"2023-11-16T03:00:00:Z","depth":"4","parameterNumber":2,"parameterNumberName":"U-component_of_CURRENTS"},"data":[0,0,0,0,0,0,0,0,0,0,0,0,0,0,0,0,0,0,0,0,0,0,0,0,0,0,0,0,0,0,0,0,0,0,0,0,0,0,0,0,0,0,0,0,0,0,0,0,0,0,0,0,0,0,0,0,0,0,-0.1347,-0.1348,0,-0.1391,-0.1391,-0.1392,-0.1413,-0.1413,-0.1413,-0.1413,-0.1451,-0.1452,-0.1453,0,0,0,0,0,0,0,0,0,0,0,0,0,-0.1289,-0.129,-0.1347,-0.1348,-0.1349,-0.1391,-0.1391,-0.1392,-0.1413,-0.1413,-0.1413,-0.1413,-0.1451,-0.1452,-0.1453,0,0,0,0,0,0,0,0,0,0,0,0,0,-0.132,-0.129,-0.1347,-0.1365,-0.1367,-0.1391,-0.1391,-0.1392,-0.1413,-0.1413,-0.1413,-0.1413,-0.145,-0.1452,-0.1453,-0.146,0,0,-0.1458,-0.1458,0,0,0,0,0,0,0,0,-0.1319,-0.1322,-0.1362,-0.1364,-0.1366,-0.1397,-0.1385,-0.1415,-0.1413,-0.1394,-0.1413,-0.1413,-0.1433,-0.1436,-0.1443,-0.1461,-0.1463,-0.1458,-0.1459,-0.1459,-0.146,0,0,0,0,0,0,0,-0.1316,-0.1321,-0.1364,-0.1362,-0.1365,-0.1373,-0.1377,-0.139,-0.1412,-0.1396,-0.1398,-0.1404,-0.1434,-0.1441,-0.1444,-0.1464,-0.1458,-0.1459,-0.146,-0.146,-0.1538,-0.1539,0,0,0,0,0,0,-0.1313,-0.1319,-0.1362,-0.1365,-0.1343,-0.1374,-0.1379,-0.1386,-0.1412,-0.1416,-0.1404,-0.1405,-0.1439,-0.1442,-0.1445,-0.1503,-0.1459,-0.146,-0.1461,-0.1537,-0.1538,-0.154,0,0,0,0,0,0,-0.1311,-0.1316,-0.136,-0.1343,-0.135,-0.1375,-0.1383,-0.1387,-0.1415,-0.1418,-0.1422,-0.143,-0.1439,-0.1443,-0.1476,-0.1503,-0.1461,-0.1462,-0.1535,-0.1537,-0.1539,-0.1588,0,0,0,0,0,0,-0.1309,-0.1315,-0.1332,-0.1343,-0.1351,-0.139,-0.1383,-0.1388,-0.1418,-0.142,-0.1442,-0.1444,-0.1439,-0.1474,-0.1477,-0.1504,-0.1463,-0.1534,-0.1536,-0.1538,-0.1585,-0.1592,-0.1597,0,0,0,0,0,-0.1307,-0.1325,-0.1332,-0.1338,-0.1368,-0.1391,-0.1396,-0.1412,-0.1419,-0.1437,-0.1452,-0.1444,-0.1491,-0.1476,-0.148,-0.1508,-0.1533,-0.1536,-0.1538,-0.1583,-0.1591,-0.1597,0,0,0,0,0,0,-0.1309,-0.1329,-0.1337,-0.1361,-0.1382,-0.1395,-0.1416,-0.1427,-0.1453,-0.1461,-0.1461,-0.1465,-0.1504,-0.15,-0.1484,-0.1537,-0.151,-0.1514,-0.1543,-0.155,-0.1556,-0.155,-0.1465,0,0,0,0,0,-0.1317,-0.1335,-0.1354,-0.1376,-0.1388,-0.1407,-0.1423,-0.1436,-0.1454,-0.1467,-0.1483,-0.1498,-0.1515,-0.1528,-0.1542,-0.1572,-0.1552,-0.1592,-0.1598,-0.1603,-0.1601,-0.1596,-0.1601,-0.1549,-0.1549,-0.1549,0,0,-0.1325,-0.1338,-0.135,-0.1378,-0.1395,-0.1421,-0.1418,-0.1449,-0.1475,-0.1467,-0.1514,-0.1524,-0.1529,-0.1562,-0.1579,-0.1564,-0.1608,-0.1607,-0.1611,-0.1606,-0.1599,-0.1604,-0.1609,-0.1551,-0.155,-0.155,0,0,-0.134,-0.1361,-0.138,-0.1402,-0.1433,-0.1446,-0.146,-0.1489,-0.151,-0.155,-0.1551,-0.1576,-0.1608,-0.1613,-0.1618,-0.1666,-0.1641,-0.1678,-0.1703,-0.1699,-0.1703,-0.1706,-0.1684,-0.1684,-0.1679,-0.1679,-0.1679,0,-0.135,-0.1373,-0.1391,-0.1415,-0.1437,-0.146,-0.1487,-0.1513,-0.1552,-0.1568,-0.1574,-0.162,-0.1629,-0.1656,-0.1675,-0.1679,-0.1666,-0.1675,-0.1705,-0.1708,-0.171,-0.1687,-0.1687,-0.1682,-0.1681,-0.1681,-0.1681,0,-0.1371,-0.1402,-0.1417,-0.1454,-0.1481,-0.151,-0.1543,-0.1577,-0.1605,-0.1623,-0.1667,-0.1679,-0.17,-0.1714,-0.1712,-0.1739,-0.1721,-0.1714,-0.1684,-0.1718,-0.1692,-0.1691,-0.1686,-0.1685,-0.1684,-0.1683,0,0,-0.1357,-0.142,-0.1426,-0.1451,-0.1505,-0.1524,-0.1576,-0.1616,-0.1644,-0.1686,-0.1715,-0.1753,-0.1756,-0.1762,-0.1765,-0.1767,-0.1777,-0.1754,-0.1753,-0.1726,-0.1757,-0.1635,-0.1622,-0.1778,-0.1778,-0.1779,-0.173,0,-0.1368,-0.1415,-0.1447,-0.1499,-0.1526,-0.1569,-0.1611,-0.1653,-0.1687,-0.1723,-0.1742,-0.1772,-0.1776,-0.1788,-0.1795,-0.1784,-0.1779,-0.179,-0.1732,-0.173,-0.1613,-0.1619,-0.178,-0.173,-0.1729,-0.1729,-0.1729,0,-0.1369,-0.1402,-0.1454,-0.1518,-0.1534,-0.1575,-0.1635,-0.1673,-0.1726,-0.1753,-0.1784,-0.1797,-0.1819,-0.1813,-0.1804,-0.1813,-0.1791,-0.1776,-0.1773,-0.1639,-0.1606,-0.1689,-0.1727,-0.1727,-0.1727,-0.1728,-0.1728,0,-0.1331,-0.1403,-0.1444,-0.1469,-0.1546,-0.1583,-0.1623,-0.1683,-0.1712,-0.1767,-0.1787,-0.1816,-0.1825,-0.1816,-0.1792,-0.1803,-0.1763,-0.1769,-0.1634,-0.1625,-0.1728,-0.1725,-0.1752,-0.1752,-0.1752,-0.1752,-0.1753,0,-0.1312,-0.1346,-0.1435,-0.1457,-0.1504,-0.1568,-0.1619,-0.1661,-0.1721,-0.1736,-0.1795,-0.1794,-0.1829,-0.1811,-0.1791,-0.1696,-0.1758,-0.1627,-0.1601,-0.175,-0.175,-0.1727,-0.1724,-0.1751,-0.1751,-0.1751,-0.1752,0,-0.1255,-0.1318,-0.1368,-0.1459,-0.1488,-0.1519,-0.1606,-0.163,-0.1701,-0.1721,-0.1738,-0.1781,-0.1747,-0.1753,-0.1724,-0.1669,-0.1608,-0.1559,-0.1704,-0.1689,-0.1475,-0.1476,-0.1402,-0.1397,-0.1393,-0.1389,-0.1386,0,-0.1226,-0.125,-0.1349,-0.1374,-0.1419,-0.1482,-0.1514,-0.1604,-0.1623,-0.1684,-0.1672,-0.1679,-0.1687,-0.1539,-0.1568,-0.1502,-0.1487,-0.1452,-0.1477,-0.1455,-0.1438,-0.1446,-0.1452,-0.138,-0.1379,-0.1378,-0.1377,0,-0.1164,-0.1213,-0.1249,-0.1299,-0.1344,-0.1386,-0.144,-0.1443,-0.1523,-0.161,-0.1553,-0.1521,-0.1475,-0.1442,-0.1397,-0.1358,-0.1476,-0.141,-0.1418,-0.1442,-0.1428,-0.1417,-0.1428,-0.1363,-0.1365,-0.1366,-0.1367,0,-0.111,-0.1116,-0.1168,-0.1197,-0.1252,-0.1253,-0.1305,-0.1315,-0.1344,-0.1422,-0.1394,-0.14,-0.1448,-0.1363,-0.1322,-0.1271,-0.1257,-0.1225,-0.1243,-0.1259,-0.1235,-0.1199,-0.1027,0,0,0,0,0,-0.1046,-0.1034,-0.1057,-0.1077,-0.1128,-0.1152,-0.1231,-0.1285,-0.137,-0.1288,-0.1339,-0.1287,-0.122,-0.1229,-0.1143,-0.1255,-0.1264,-0.1151,-0.1238,-0.1285,-0.1301,-0.1286,0,0,0,0,0,0,-0.0997,-0.1012,-0.1014,-0.0969,-0.0958,-0.0991,-0.1033,-0.1096,-0.1066,-0.1158,-0.1125,-0.1201,-0.1153,-0.1234,-0.1109,-0.1113,-0.1139,-0.1173,-0.1169,-0.1276,-0.1291,-0.1304,-0.1294,0,0,0,0,0]},{"header":{"parameterUnit":"m.s-1","parameterCategory":2,"la1":30.2991,"la2":30.254,"lo1":-89.0895,"lo2":-89.0444,"dy":0.0017,"dx":0.0017,"nx":28,"ny":28,"refTime":"2023-11-16T03:00:00:Z","depth":"4","parameterNumber":3,"parameterNumberName":"V-component_of_CURRENTS"},"data":[0,0,0,0,0,0,0,0,0,0,0,0,0,0,0,0,0,0,0,0,0,0,0,0,0,0,0,0,0,0,0,0,0,0,0,0,0,0,0,0,0,0,0,0,0,0,0,0,0,0,0,0,0,0,0,0,0,0,-0.0181,-0.018,0,-0.0133,-0.0133,-0.0132,-0.0099,-0.0099,-0.0099,-0.0098,-0.0021,-0.002,-0.0018,0,0,0,0,0,0,0,0,0,0,0,0,0,-0.021,-0.021,-0.0181,-0.018,-0.018,-0.0134,-0.0133,-0.0132,-0.0099,-0.0099,-0.0099,-0.0098,-0.0022,-0.002,-0.0018,0,0,0,0,0,0,0,0,0,0,0,0,0,-0.0183,-0.021,-0.0181,-0.0158,-0.0156,-0.0134,-0.0133,-0.0132,-0.0099,-0.0099,-0.0098,-0.0098,-0.0023,-0.002,-0.0017,-0.0006,0,0,-0.0009,-0.0008,0,0,0,0,0,0,0,0,-0.0185,-0.0182,-0.0162,-0.016,-0.0157,-0.0122,-0.0115,-0.0089,-0.0099,-0.012,-0.0098,-0.0098,-0.0053,-0.0048,-0.0039,-0.0002,0.0001,-0.0008,-0.0007,-0.0006,-0.0005,0,0,0,0,0,0,0,-0.0187,-0.0184,-0.0161,-0.0161,-0.0158,-0.0139,-0.0135,-0.011,-0.0088,-0.0118,-0.0116,-0.0112,-0.0051,-0.0042,-0.0037,0.0002,-0.0009,-0.0006,-0.0004,-0.0003,0.0053,0.0053,0,0,0,0,0,0,-0.0196,-0.0186,-0.0163,-0.016,-0.0171,-0.0139,-0.0135,-0.0133,-0.0088,-0.0082,-0.0112,-0.011,-0.0047,-0.004,-0.0034,-0.0018,-0.0006,-0.0003,-0.0001,0.0054,0.0053,0.0053,0,0,0,0,0,0,-0.0197,-0.0195,-0.0165,-0.0172,-0.0167,-0.0139,-0.0138,-0.0132,-0.0125,-0.0084,-0.0077,-0.011,-0.0046,-0.0038,-0.0013,-0.0015,-0.0002,0.0001,0.0054,0.0054,0.0053,0.0015,0,0,0,0,0,0,-0.0198,-0.0195,-0.02,-0.0173,-0.0167,-0.0157,-0.0138,-0.0132,-0.0123,-0.012,-0.008,-0.0072,-0.0045,-0.0018,-0.001,-0.0011,0.0003,0.0054,0.0054,0.0053,0.0016,0.0013,0.001,0,0,0,0,0,-0.0199,-0.0206,-0.0201,-0.0198,-0.0174,-0.0157,-0.0152,-0.0131,-0.0123,-0.0122,-0.0094,-0.0074,-0.0015,-0.0015,-0.0007,-0.0006,0.0054,0.0054,0.0053,0.0017,0.0014,0.001,0,0,0,0,0,0,-0.022,-0.0203,-0.0196,-0.0197,-0.0182,-0.0152,-0.0151,-0.0136,-0.0114,-0.0112,-0.0074,-0.0064,-0.0044,-0.0021,-0.0023,0.0008,0.0022,0.0024,-0.0008,-0.0011,-0.0014,-0.0021,0.0005,0,0,0,0,0,-0.0228,-0.0231,-0.0208,-0.0211,-0.0205,-0.018,-0.0172,-0.0158,-0.0133,-0.0124,-0.0096,-0.0066,-0.0039,-0.0023,0.0002,0.0021,0.0049,0.0026,0.0024,0.0021,0.0021,0.0062,0.0063,0.0052,0.0052,0.0052,0,0,-0.0237,-0.0229,-0.023,-0.0216,-0.0203,-0.0198,-0.0174,-0.0166,-0.016,-0.0119,-0.0103,-0.0076,-0.0037,-0.0017,-0.0006,0.0003,0.0037,0.0021,0.0018,0.0019,0.0062,0.0063,0.0064,0.0052,0.0052,0.0052,0,0,-0.0257,-0.025,-0.0259,-0.0248,-0.0233,-0.0216,-0.0217,-0.0191,-0.0177,-0.016,-0.0129,-0.0102,-0.0065,-0.0034,-0.0013,-0.0017,0.0018,-0.0012,-0.0027,0.0013,0.0014,0.0016,0.0045,0.0049,-0.001,-0.0011,-0.0011,0,-0.0269,-0.0277,-0.0258,-0.0261,-0.0256,-0.0228,-0.0232,-0.0213,-0.0182,-0.0171,-0.0162,-0.0102,-0.0071,-0.0035,-0.0037,-0.0022,0.0002,-0.0018,0.0009,0.0011,0.0014,0.0044,0.0049,-0.0012,-0.0012,-0.0012,-0.0012,0,-0.029,-0.0298,-0.0302,-0.0298,-0.0288,-0.0289,-0.0261,-0.0251,-0.0233,-0.0209,-0.0177,-0.0133,-0.0096,-0.0082,-0.0059,-0.0029,-0.0017,-0.0002,0.0017,0.0013,0.0044,0.005,-0.0015,-0.0015,-0.0014,-0.0013,0,0,-0.0314,-0.0318,-0.0322,-0.033,-0.031,-0.0306,-0.0294,-0.0273,-0.0265,-0.023,-0.0211,-0.0163,-0.0137,-0.0113,-0.0077,-0.0041,-0.0006,-0.0019,-0.0016,0.0008,0.0075,0.0065,0.0071,0.0014,0.0016,0.0016,0.0088,0,-0.0339,-0.0362,-0.0352,-0.037,-0.0378,-0.035,-0.034,-0.0315,-0.0287,-0.0261,-0.0207,-0.0178,-0.0148,-0.0132,-0.009,-0.0027,0.001,-0.0028,0.0078,0.0081,0.0071,0.0078,0.002,0.0093,0.0095,0.0096,0.0097,0,-0.0362,-0.0376,-0.0403,-0.0411,-0.0411,-0.0415,-0.0398,-0.0386,-0.0335,-0.0311,-0.0266,-0.0222,-0.0162,-0.0139,-0.0031,-0.0057,0.0003,0.0053,0.0057,0.0066,0.0083,0.0102,0.0109,0.0108,0.0107,0.0106,0.0106,0,-0.0389,-0.0411,-0.0439,-0.0441,-0.044,-0.0447,-0.0443,-0.0404,-0.0394,-0.0343,-0.0326,-0.0247,-0.0207,-0.0122,-0.002,-0.0024,0.01,0.011,0.0158,0.0158,0.0163,0.0161,0.0186,0.0186,0.0186,0.0186,0.0186,0,-0.0414,-0.0438,-0.0461,-0.0475,-0.0507,-0.0487,-0.0501,-0.0482,-0.0445,-0.0429,-0.0359,-0.0321,-0.0201,-0.0114,-0.0026,0.0085,0.0099,0.0157,0.0178,0.0143,0.0138,0.0167,0.0164,0.0188,0.0188,0.0187,0.0187,0,-0.0436,-0.0451,-0.0491,-0.0513,-0.0524,-0.0546,-0.0551,-0.0551,-0.0514,-0.0489,-0.0474,-0.0371,-0.0257,-0.0135,0.0012,0.0074,0.0182,0.0218,0.0166,0.0183,0.0213,0.0207,0.0275,0.0275,0.0275,0.0275,0.0276,0,-0.0448,-0.0471,-0.0527,-0.0558,-0.0575,-0.0603,-0.0616,-0.0592,-0.0582,-0.0514,-0.0497,-0.0388,-0.0308,-0.01,0.0017,0.0183,0.0206,0.025,0.0236,0.0209,0.0224,0.0217,0.0211,0.0276,0.0276,0.0276,0.0276,0,-0.047,-0.0498,-0.0532,-0.0596,-0.0634,-0.0665,-0.0678,-0.0673,-0.063,-0.0603,-0.0496,-0.0383,-0.0252,-0.0094,0.0034,0.0151,0.0214,0.0253,0.0254,0.024,0.0212,0.0224,0.0218,0.0277,0.0277,0.0277,0.0277,0,-0.049,-0.0524,-0.0574,-0.0627,-0.0679,-0.0705,-0.071,-0.0676,-0.0654,-0.0567,-0.0532,-0.038,-0.0286,-0.011,0.0008,0.012,0.0145,0.017,0.0175,0.0175,0.0121,0.0069,0.0111,0,0,0,0,0,-0.0501,-0.0538,-0.0594,-0.0652,-0.0702,-0.0723,-0.0737,-0.0726,-0.0686,-0.0612,-0.0564,-0.0433,-0.0237,-0.0146,-0.0033,-0.0009,0.0143,0.0123,0.0168,0.0282,0.0281,0.0232,0,0,0,0,0,0,-0.0511,-0.0566,-0.0594,-0.0655,-0.0692,-0.0735,-0.0742,-0.0718,-0.066,-0.0604,-0.0489,-0.0419,-0.0223,-0.0295,-0.0032,0.0001,0.0041,0.0221,0.0223,0.0282,0.0281,0.0281,0.0231,0,0,0,0,0]}]]